Location: Unspecified
(0.0000°N, 0.0000°E)
Time: 19:01:13
(UTC+00:00)

Envisat - Pass Details

Date: 27 May 2019
Orbit: 764 x 766 km, 98.1° (Epoch: 19 August)

Event Time Altitude Azimuth Distance (km) Brightness Sun altitude
Rises 19:15:21 0° 180° (S) 3,227 6.0 -18.2°
Reaches altitude 10° 19:17:44 10° 185° (S) 2,299 5.3 -18.7°
Maximum altitude 19:22:34 46° 258° (WSW) 1,017 4.0 -19.8°
Drops below altitude 10° 19:27:23 10° 331° (NNW) 2,290 6.2 -20.9°
Sets 19:29:46 0° 337° (NNW) 3,214 6.9 -21.5°
